CPV1026 SBGL-SBVT

Flight info

Callsign CPV1026
Flight time 0h 43m
Altitude 31000
Route ISVA UL206 TODET
Aircraft B738/M-SDE3/L

Departure

Time 2026-04-23 22:35
Airport Rio Galeão – Tom Jobim International Airport (SBGL)

Arrival

Time 2026-04-23 23:18
Airport Eurico de Aguiar Salles International Airport (SBVT)
Time Latitude Longitude Altitude Speed Heading
2026-04-23 22:12 -22.81258 -43.25129 21 ft 0 kts 350°
2026-04-23 22:25 -22.81266 -43.25128 23 ft 4 kts 349°
2026-04-23 22:25 -22.81293 -43.25122 21 ft 4 kts 348°
2026-04-23 22:25 -22.81311 -43.25117 22 ft 2 kts 330°
2026-04-23 22:26 -22.81320 -43.25109 22 ft 2 kts 288°
2026-04-23 22:26 -22.81322 -43.25097 21 ft 2 kts 270°
2026-04-23 22:26 -22.81322 -43.25090 23 ft 0 kts 268°
2026-04-23 22:28 -22.81323 -43.25099 21 ft 5 kts 263°
2026-04-23 22:28 -22.81327 -43.25151 22 ft 7 kts 268°
2026-04-23 22:29 -22.81314 -43.25203 22 ft 7 kts 298°
2026-04-23 22:29 -22.81289 -43.25249 21 ft 7 kts 304°
2026-04-23 22:29 -22.81259 -43.25289 21 ft 7 kts 310°
2026-04-23 22:29 -22.81225 -43.25325 21 ft 7 kts 320°
2026-04-23 22:30 -22.81186 -43.25351 21 ft 7 kts 333°
2026-04-23 22:30 -22.81145 -43.25370 21 ft 6 kts 342°
2026-04-23 22:30 -22.81091 -43.25383 21 ft 13 kts 352°
2026-04-23 22:30 -22.80987 -43.25383 22 ft 2 kts 346°
2026-04-23 22:31 -22.80961 -43.25405 21 ft 13 kts 307°
2026-04-23 22:31 -22.80917 -43.25497 27 ft 14 kts 296°
2026-04-23 22:31 -22.80876 -43.25591 24 ft 16 kts 298°
2026-04-23 22:31 -22.80801 -43.25679 26 ft 15 kts 347°
2026-04-23 22:32 -22.80702 -43.25636 25 ft 16 kts 36°
2026-04-23 22:32 -22.80614 -43.25567 26 ft 15 kts 36°
2026-04-23 22:32 -22.80528 -43.25538 30 ft 13 kts 339°
2026-04-23 22:32 -22.80452 -43.25590 29 ft 13 kts 326°
2026-04-23 22:33 -22.80371 -43.25607 27 ft 6 kts 21°
2026-04-23 22:33 -22.80331 -43.25583 29 ft 7 kts 34°
2026-04-23 22:33 -22.80292 -43.25548 25 ft 8 kts 39°
2026-04-23 22:33 -22.80251 -43.25512 26 ft 7 kts 39°
2026-04-23 22:34 -22.80210 -43.25481 25 ft 7 kts 30°
2026-04-23 22:34 -22.80162 -43.25414 28 ft 32 kts 72°
2026-04-23 22:34 -22.80029 -43.24907 30 ft 106 kts 74°
2026-04-23 22:34 -22.79781 -43.23917 37 ft 164 kts 76°
2026-04-23 22:35 -22.79394 -43.22660 533 ft 181 kts 70°
2026-04-23 22:35 -22.79014 -43.21415 1579 ft 163 kts 81°
2026-04-23 22:35 -22.78819 -43.20201 2406 ft 170 kts 79°
2026-04-23 22:35 -22.78549 -43.18824 2709 ft 204 kts 78°
2026-04-23 22:36 -22.78224 -43.17229 2979 ft 228 kts 78°
2026-04-23 22:36 -22.77864 -43.15491 3377 ft 250 kts 77°
2026-04-23 22:36 -22.77467 -43.13589 3984 ft 262 kts 77°
2026-04-23 22:36 -22.77060 -43.11648 4844 ft 267 kts 77°
2026-04-23 22:37 -22.76642 -43.09664 5627 ft 274 kts 77°
2026-04-23 22:37 -22.76212 -43.07626 6408 ft 280 kts 77°
2026-04-23 22:37 -22.75773 -43.05556 7216 ft 283 kts 77°
2026-04-23 22:37 -22.75338 -43.03504 8062 ft 284 kts 78°
2026-04-23 22:38 -22.74893 -43.01412 8890 ft 286 kts 78°
2026-04-23 22:38 -22.74442 -42.99300 9708 ft 289 kts 78°
2026-04-23 22:38 -22.73984 -42.97157 10414 ft 296 kts 78°
2026-04-23 22:38 -22.73501 -42.94897 10612 ft 320 kts 78°
2026-04-23 22:39 -22.72981 -42.92461 10792 ft 342 kts 78°
2026-04-23 22:39 -22.72431 -42.89896 11183 ft 355 kts 78°
2026-04-23 22:39 -22.71867 -42.87268 11784 ft 359 kts 78°
2026-04-23 22:39 -22.71304 -42.84647 12431 ft 362 kts 78°
2026-04-23 22:40 -22.70730 -42.81981 13073 ft 365 kts 78°
2026-04-23 22:40 -22.70148 -42.79279 13697 ft 369 kts 78°
2026-04-23 22:40 -22.68968 -42.73801 14761 ft 378 kts 78°
2026-04-23 22:41 -22.68364 -42.71005 15284 ft 382 kts 78°
2026-04-23 22:41 -22.67755 -42.68184 15806 ft 386 kts 78°
2026-04-23 22:41 -22.67139 -42.65335 16314 ft 390 kts 77°
2026-04-23 22:41 -22.66516 -42.62456 16806 ft 395 kts 77°
2026-04-23 22:42 -22.65895 -42.59590 17288 ft 399 kts 77°
2026-04-23 22:42 -22.65257 -42.56646 17801 ft 402 kts 77°
2026-04-23 22:42 -22.64615 -42.53686 18295 ft 406 kts 77°
2026-04-23 22:42 -22.63965 -42.50691 18729 ft 410 kts 77°
2026-04-23 22:43 -22.63308 -42.47670 19135 ft 414 kts 77°
2026-04-23 22:43 -22.62645 -42.44619 19542 ft 418 kts 77°
2026-04-23 22:43 -22.61975 -42.41542 19950 ft 421 kts 77°
2026-04-23 22:43 -22.61299 -42.38443 20344 ft 425 kts 77°
2026-04-23 22:44 -22.60617 -42.35316 20746 ft 428 kts 78°
2026-04-23 22:44 -22.59930 -42.32166 21118 ft 432 kts 78°
2026-04-23 22:44 -22.59234 -42.28983 21500 ft 436 kts 78°
2026-04-23 22:44 -22.58282 -42.25861 21830 ft 441 kts 62°
2026-04-23 22:45 -22.56460 -42.23190 22203 ft 444 kts 43°
2026-04-23 22:45 -22.54091 -42.21040 22622 ft 445 kts 38°
2026-04-23 22:45 -22.51699 -42.18951 22933 ft 450 kts 38°
2026-04-23 22:45 -22.49259 -42.16804 23242 ft 454 kts 39°
2026-04-23 22:46 -22.46811 -42.14631 23587 ft 457 kts 39°
2026-04-23 22:46 -22.44352 -42.12433 23904 ft 460 kts 39°
2026-04-23 22:46 -22.41884 -42.10218 24196 ft 462 kts 39°
2026-04-23 22:46 -22.39407 -42.07990 24486 ft 464 kts 39°
2026-04-23 22:47 -22.36913 -42.05747 24753 ft 467 kts 39°
2026-04-23 22:47 -22.34411 -42.03497 25053 ft 469 kts 39°
2026-04-23 22:47 -22.31895 -42.01237 25327 ft 471 kts 39°
2026-04-23 22:47 -22.29368 -41.98968 25587 ft 474 kts 39°
2026-04-23 22:48 -22.26830 -41.96692 25860 ft 476 kts 39°
2026-04-23 22:48 -22.24274 -41.94400 26116 ft 478 kts 39°
2026-04-23 22:48 -22.21710 -41.92103 26366 ft 481 kts 39°
2026-04-23 22:48 -22.19129 -41.89790 26633 ft 483 kts 39°
2026-04-23 22:49 -22.16543 -41.87474 26897 ft 485 kts 39°
2026-04-23 22:49 -22.13941 -41.85146 27157 ft 486 kts 39°
2026-04-23 22:49 -22.11326 -41.82809 27400 ft 489 kts 39°
2026-04-23 22:49 -22.08705 -41.80467 27642 ft 491 kts 39°
2026-04-23 22:50 -22.06071 -41.78113 27894 ft 493 kts 39°
2026-04-23 22:50 -22.03462 -41.75782 28227 ft 492 kts 40°
2026-04-23 22:50 -22.00799 -41.73403 28612 ft 491 kts 40°
2026-04-23 22:50 -21.98205 -41.71088 28968 ft 490 kts 40°
2026-04-23 22:51 -21.95574 -41.68741 29300 ft 491 kts 40°
2026-04-23 22:51 -21.92943 -41.66398 29633 ft 491 kts 40°
2026-04-23 22:51 -21.90311 -41.64055 30004 ft 490 kts 40°
2026-04-23 22:51 -21.87683 -41.61718 30338 ft 490 kts 40°
2026-04-23 22:52 -21.85061 -41.59386 30683 ft 488 kts 40°
2026-04-23 22:52 -21.82445 -41.57061 31042 ft 486 kts 40°
2026-04-23 22:52 -21.79835 -41.54741 31121 ft 489 kts 40°
2026-04-23 22:53 -21.74590 -41.50082 31131 ft 487 kts 40°
2026-04-23 22:53 -21.69383 -41.45461 31137 ft 485 kts 40°
2026-04-23 22:54 -21.64178 -41.40847 31133 ft 484 kts 40°
2026-04-23 22:54 -21.58983 -41.36246 31129 ft 484 kts 40°
2026-04-23 22:55 -21.53791 -41.31648 31122 ft 480 kts 40°
2026-04-23 22:55 -21.48706 -41.27151 31129 ft 470 kts 40°
2026-04-23 22:56 -21.43659 -41.22692 31068 ft 471 kts 40°
2026-04-23 22:56 -21.41125 -41.20453 30700 ft 470 kts 40°
2026-04-23 22:56 -21.38618 -41.18241 30318 ft 465 kts 40°
2026-04-23 22:56 -21.36130 -41.16044 29859 ft 462 kts 40°
2026-04-23 22:57 -21.33655 -41.13860 29400 ft 458 kts 40°
2026-04-23 22:57 -21.31199 -41.11695 28949 ft 455 kts 40°
2026-04-23 22:57 -21.28769 -41.09555 28578 ft 449 kts 40°
2026-04-23 22:57 -21.26364 -41.07441 28143 ft 446 kts 40°
2026-04-23 22:58 -21.24001 -41.05364 27713 ft 442 kts 40°
2026-04-23 22:58 -21.21629 -41.03280 27291 ft 439 kts 40°
2026-04-23 22:58 -21.19271 -41.01208 26874 ft 436 kts 40°
2026-04-23 22:58 -21.16932 -40.99153 26451 ft 433 kts 39°
2026-04-23 22:59 -21.14608 -40.97112 26030 ft 430 kts 39°
2026-04-23 22:59 -21.12295 -40.95080 25605 ft 428 kts 39°
2026-04-23 22:59 -21.10002 -40.93068 25183 ft 426 kts 39°
2026-04-23 22:59 -21.07714 -40.91061 24750 ft 424 kts 39°
2026-04-23 23:00 -21.05441 -40.89069 24401 ft 420 kts 39°
2026-04-23 23:00 -21.03203 -40.87109 24090 ft 414 kts 39°
2026-04-23 23:00 -21.00974 -40.85157 23710 ft 412 kts 38°
2026-04-23 23:00 -20.98787 -40.83242 23230 ft 410 kts 38°
2026-04-23 23:01 -20.96589 -40.81318 22794 ft 406 kts 38°
2026-04-23 23:01 -20.94408 -40.79409 22368 ft 403 kts 38°
2026-04-23 23:01 -20.92250 -40.77521 21957 ft 400 kts 38°
2026-04-23 23:01 -20.90103 -40.75643 21550 ft 396 kts 38°
2026-04-23 23:02 -20.87974 -40.73782 21151 ft 393 kts 38°
2026-04-23 23:02 -20.85863 -40.71936 20754 ft 390 kts 38°
2026-04-23 23:02 -20.83768 -40.70106 20346 ft 387 kts 38°
2026-04-23 23:02 -20.81686 -40.68289 19954 ft 385 kts 38°
2026-04-23 23:03 -20.79486 -40.66760 19573 ft 380 kts 22°
2026-04-23 23:03 -20.77050 -40.65717 19257 ft 375 kts 20°
2026-04-23 23:03 -20.74591 -40.64688 18860 ft 373 kts 20°
2026-04-23 23:03 -20.72182 -40.63664 18448 ft 372 kts 21°
2026-04-23 23:04 -20.69818 -40.62643 18022 ft 370 kts 21°
2026-04-23 23:04 -20.67441 -40.61608 17611 ft 368 kts 21°
2026-04-23 23:04 -20.65082 -40.60575 17211 ft 365 kts 21°
2026-04-23 23:04 -20.62737 -40.59544 16818 ft 362 kts 22°
2026-04-23 23:05 -20.60415 -40.58523 16425 ft 360 kts 22°
2026-04-23 23:05 -20.58110 -40.57509 16052 ft 357 kts 22°
2026-04-23 23:05 -20.55820 -40.56502 15673 ft 354 kts 22°
2026-04-23 23:05 -20.53545 -40.55502 15296 ft 352 kts 22°
2026-04-23 23:06 -20.51286 -40.54510 14945 ft 349 kts 22°
2026-04-23 23:06 -20.49051 -40.53528 14529 ft 348 kts 22°
2026-04-23 23:06 -20.46817 -40.52547 14171 ft 345 kts 22°
2026-04-23 23:06 -20.44601 -40.51574 13764 ft 344 kts 22°
2026-04-23 23:07 -20.42397 -40.50606 13355 ft 341 kts 22°
2026-04-23 23:07 -20.40210 -40.49646 12962 ft 339 kts 22°
2026-04-23 23:07 -20.38039 -40.48693 12586 ft 336 kts 22°
2026-04-23 23:07 -20.35881 -40.47748 12216 ft 334 kts 21°
2026-04-23 23:08 -20.33689 -40.46949 11765 ft 333 kts 14°
2026-04-23 23:08 -20.31435 -40.46399 11325 ft 333 kts 11°
2026-04-23 23:08 -20.29203 -40.45907 10887 ft 328 kts 11°
2026-04-23 23:08 -20.26997 -40.45405 10437 ft 321 kts 11°
2026-04-23 23:09 -20.24845 -40.44888 10037 ft 313 kts 12°
2026-04-23 23:09 -20.22798 -40.44380 10048 ft 291 kts 12°
2026-04-23 23:09 -20.21513 -40.44060 9945 ft 283 kts 12°
2026-04-23 23:09 -20.19600 -40.43583 9650 ft 282 kts 12°
2026-04-23 23:10 -20.17696 -40.43109 9360 ft 280 kts 12°
2026-04-23 23:10 -20.15800 -40.42637 9063 ft 279 kts 12°
2026-04-23 23:10 -20.13909 -40.42166 8767 ft 278 kts 12°
2026-04-23 23:10 -20.12026 -40.41697 8478 ft 277 kts 12°
2026-04-23 23:11 -20.10252 -40.40935 8152 ft 279 kts 37°
2026-04-23 23:11 -20.09051 -40.39348 7858 ft 274 kts 64°
2026-04-23 23:11 -20.08416 -40.37447 7425 ft 273 kts 73°
2026-04-23 23:11 -20.07863 -40.35500 6904 ft 276 kts 73°
2026-04-23 23:12 -20.07297 -40.33569 6397 ft 278 kts 72°
2026-04-23 23:12 -20.06710 -40.31607 5860 ft 279 kts 72°
2026-04-23 23:12 -20.06118 -40.29639 5313 ft 279 kts 73°
2026-04-23 23:12 -20.05590 -40.27655 4780 ft 279 kts 83°
2026-04-23 23:13 -20.05562 -40.25607 4265 ft 275 kts 97°
2026-04-23 23:13 -20.05938 -40.23630 3795 ft 271 kts 107°
2026-04-23 23:13 -20.06523 -40.21811 3718 ft 249 kts 111°
2026-04-23 23:13 -20.07164 -40.20161 3609 ft 232 kts 115°
2026-04-23 23:14 -20.08099 -40.18869 3523 ft 214 kts 145°
2026-04-23 23:14 -20.09458 -40.18431 3284 ft 207 kts 181°
2026-04-23 23:14 -20.10819 -40.18811 3064 ft 200 kts 202°
2026-04-23 23:14 -20.12012 -40.19520 2830 ft 194 kts 210°
2026-04-23 23:15 -20.13114 -40.20270 2702 ft 184 kts 211°
2026-04-23 23:15 -20.14171 -40.20982 2488 ft 176 kts 210°
2026-04-23 23:15 -20.15215 -40.21674 2299 ft 176 kts 210°
2026-04-23 23:15 -20.16268 -40.22371 2022 ft 175 kts 210°
2026-04-23 23:16 -20.17248 -40.23022 1790 ft 157 kts 210°
2026-04-23 23:16 -20.18137 -40.23611 1590 ft 145 kts 210°
2026-04-23 23:16 -20.18993 -40.24178 1463 ft 145 kts 210°
2026-04-23 23:16 -20.19869 -40.24757 1241 ft 148 kts 210°
2026-04-23 23:17 -20.20752 -40.25342 1032 ft 149 kts 211°
2026-04-23 23:17 -20.21628 -40.25923 839 ft 147 kts 211°
2026-04-23 23:17 -20.22482 -40.26489 654 ft 146 kts 211°
2026-04-23 23:17 -20.23347 -40.27061 464 ft 146 kts 211°
2026-04-23 23:18 -20.24209 -40.27633 272 ft 145 kts 211°
2026-04-23 23:18 -20.25065 -40.28200 70 ft 144 kts 211°
2026-04-23 23:18 -20.25870 -40.28729 20 ft 120 kts 213°
2026-04-23 23:18 -20.26215 -40.28958 24 ft 29 kts 211°
2026-04-23 23:19 -20.26351 -40.29045 23 ft 17 kts 215°
2026-04-23 23:19 -20.26385 -40.29092 22 ft 1 kts 271°
2026-04-23 23:19 -20.26372 -40.29111 22 ft 6 kts 321°
2026-04-23 23:19 -20.26331 -40.29133 21 ft 7 kts 340°
2026-04-23 23:20 -20.26285 -40.29145 21 ft 7 kts 352°
2026-04-23 23:20 -20.26239 -40.29142 22 ft 7 kts
2026-04-23 23:20 -20.26192 -40.29127 24 ft 9 kts 26°
2026-04-23 23:20 -20.26120 -40.29083 21 ft 13 kts 31°
2026-04-23 23:21 -20.26043 -40.29032 21 ft 13 kts 32°
2026-04-23 23:21 -20.25971 -40.28979 21 ft 12 kts 34°
2026-04-23 23:21 -20.25899 -40.28931 21 ft 12 kts 32°
2026-04-23 23:21 -20.25828 -40.28884 21 ft 12 kts 32°
2026-04-23 23:22 -20.25764 -40.28851 21 ft 8 kts 353°
2026-04-23 23:22 -20.25751 -40.28861 21 ft 0 kts 313°